星链-5305 (STARLINK-5305 )

导读 | 豆包AI

STARLINK-5305是美国SpaceX公司星链(Starlink)星座的一颗互联网通信卫星,于2023年1月19日发射升空,属于星链低轨互联网星座组网卫星。作为量产型低轨通信卫星,它采用霍尔推进器与自主避撞设计,配备通信载荷与星间链路,旨在为全球提供高速低延迟互联网接入服务,目前正常在轨运行,助力星链星座全球覆盖。

基本信息
目录编号:
55314
目录名称:
STARLINK-5305
国际标识:
2023-010AX
轨道中心:
EARTH
卫星名称:
星链-5305
卫星全名:
星链-5305 (STARLINK-5305 )
卫星状态:
在轨 (已飞行1223 天)
发射日期:
2023-01-19 UTC
国别 :
美国 (US)
星等 :
--
轨道信息
数据来源 国际轨道数据 AOE轨道数据
星历时间 2026-05-25T16:22:31+0800
1天前
查看轨道信息
2026-05-25T08:00:00+0800
1天前
查看轨道信息
半长轴 6950.21km 6950.201km
偏心率 0.0003363 0.0002924
轨道倾角 69.999° 69.995°
近地点辐角 269.213° 277.549°
升交点赤经 171.226° 172.107°
平近点角 90.865° 0.726°
近地点 569.735km 570.031km
远地点 574.411km 574.097km
周期 96.107分钟 96.107分钟
每日圈数 14.983247 14.983276
详细信息
固有亮度:
5
最大亮度:
2.5
卫星平台:
Starlink v1.5
覆盖范围:
全球
运营商:
太空探索技术公司
运营商所在国:
美国
制造商(研发单位):
太空探索技术公司
制造商所在国:
美国
使用方式:
暂无
卫星简介
星链(Starlink)计划是由太空探索技术公司(SpaceX)提出的一个巨型低轨卫星互联网星座项目,计划在2019年至2024年间在太空搭建由约1.2万颗卫星组成的“星链”网络,其中1584颗将部署在地球上空550千米处的近地轨道,并从2020年开始工作。该卫星仍在工作。
2D轨道图
3D轨道图
轨道高度分析图
轨道倾角分析图
轨道综合分析图
查看轨道综合分析图